Location: ???????
(55.3754°N, 39.3545°E)
Time: 15:24:20
(UTC+00:00)

H-2A R/B - Pass Details

Date: 14 April 2026
Orbit: 478 x 548 km, 98.3° (Epoch: 17 May)

Event Time Altitude Azimuth Distance (km) Brightness Sun altitude
Exits shadow 23:12:56 12° 125° (SE) 1,603 4.6 -21.0°
Maximum altitude 23:15:56 32° 64° (ENE) 880 3.8 -20.8°
Drops below altitude 10° 23:19:12 10° 0° (N) 1,696 5.7 -20.5°
Sets 23:21:23 0° 351° (N) 2,574 6.5 -20.4°
